Laramie, WY

2:46 AM MDT on August 19, 2017 (GMT -0600)
Laramie Regional

Weather History for KLAR - September, 2014

Change the Weather History Date:

Monday, September 22, 2014

  Actual Average Record
Temperature  
Mean Temperature 58 °F 51 °F  
Max Temperature 68 °F 66 °F 81 °F (1954)
Min Temperature 47 °F 36 °F 15 °F (1994)
Degree Days  
Heating Degree Days 7 14  
Month to date heating degree days 200 223  
Since 1 July heating degree days 379 395  
Cooling Degree Days 0 0  
Month to date cooling degree days 0 0  
Year to date cooling degree days 67 66  
Growing Degree Days 7 (Base 50)    
Moisture  
Dew Point 44 °F    
Average Humidity 64    
Maximum Humidity 86    
Minimum Humidity 42    
Precipitation  
Precipitation 0.07 in 0.04 in 0.89 in (2000)
Month to date precipitation 0.71 0.83  
Year to date precipitation 11.50 8.98  
Sea Level Pressure  
Sea Level Pressure 30.04 in    
Wind  
Wind Speed 13 mph (SW)    
Max Wind Speed 43 mph    
Max Gust Speed 50 mph    
Visibility 9 miles    
Events Rain , Thunderstorm    
T = Trace of Precipitation, MM = Missing Value Source: NWS Daily Summary

Daily Weather History Graph

Daily Weather History Graph

Search for Another Location

Airport or City:

Trip Planner

Search our weather history database for the weather conditions in past years. The results will help you decide how hot, cold, wet, or windy it might be!

Date:

Astronomy

Sep. 22, 2014 Rise Set
Actual Time 6:50 AM MDT 6:59 PM MDT
Civil Twilight 6:22 AM MDT 7:27 PM MDT
Nautical Twilight 5:50 AM MDT 7:59 PM MDT
Astronomical Twilight 5:17 AM MDT 8:32 PM MDT
Moon 5:20 AM MDT (9/22) 6:09 PM MDT (9/22)
Length of Visible Light 13h 04m
Length of Day
12h 09m
Waning Crescent, 2% of the Moon is Illuminated
Sep 22
Waning Crescent
Sep 24
New
Oct 1
First Quarter
Oct 8
Full
Oct 15
Last Quarter

Hourly Weather History & Observations

Time (MDT) Temp. Dew Point Humidity Pressure Visibility Wind Dir Wind Speed Gust Speed Precip Events Conditions
12:53 AM 48.9 °F 39.9 °F 71% 30.04 in 10.0 mi South 10.4 mph - N/A   Clear
2:53 AM 48.9 °F 42.1 °F 77% 30.03 in 10.0 mi SSE 9.2 mph - N/A   Mostly Cloudy
3:53 AM 52.0 °F 45.0 °F 77% 30.00 in 10.0 mi SSE 12.7 mph - 0.00 in   Overcast
4:53 AM 52.0 °F 45.0 °F 77% 30.00 in 10.0 mi South 10.4 mph - N/A   Mostly Cloudy
5:53 AM 48.0 °F 45.0 °F 89% 30.02 in 10.0 mi SE 10.4 mph - N/A   Clear
6:53 AM 52.0 °F 45.0 °F 77% 30.04 in 10.0 mi East 4.6 mph - N/A   Scattered Clouds
7:53 AM 57.0 °F 46.0 °F 67% 30.02 in 10.0 mi SW 9.2 mph 25.3 mph 0.00 in Rain Light Rain
8:53 AM 62.1 °F 45.0 °F 53% 30.00 in 10.0 mi SW 17.3 mph - 0.00 in   Scattered Clouds
9:53 AM 64.9 °F 44.1 °F 47% 29.99 in 10.0 mi SSW 10.4 mph - N/A   Clear
10:53 AM 66.9 °F 43.0 °F 42% 29.97 in 10.0 mi SW 16.1 mph - N/A   Clear
11:53 AM 54.0 °F 44.1 °F 69% 30.07 in 9.0 mi WSW 39.1 mph 50.6 mph 0.00 in Rain Light Rain
12:04 PM 50.0 °F 46.9 °F 89% 30.31 in 1.8 mi WSW 20.7 mph 44.9 mph 0.04 in Rain Heavy Rain
12:10 PM 51.1 °F 46.9 °F 86% 30.31 in 3.0 mi West 15.0 mph 31.1 mph 0.05 in Rain Rain
12:23 PM 52.0 °F 48.0 °F 86% 30.30 in 10.0 mi West 10.4 mph - 0.06 in Rain , Thunderstorm Light Rain
12:38 PM 53.1 °F 48.0 °F 83% 30.28 in 10.0 mi West 6.9 mph - 0.06 in Rain Light Rain
12:53 PM 53.1 °F 48.0 °F 83% 30.07 in 10.0 mi West 10.4 mph - 0.06 in Rain Light Rain
1:53 PM 62.1 °F 44.1 °F 52% 29.99 in 10.0 mi WSW 11.5 mph - 0.00 in   Mostly Cloudy
2:53 PM 64.9 °F 42.1 °F 43% 29.96 in 10.0 mi WSW 19.6 mph 24.2 mph N/A   Partly Cloudy
3:53 PM 64.9 °F 41.0 °F 42% 29.93 in 10.0 mi WSW 13.8 mph - N/A   Scattered Clouds
4:53 PM 62.1 °F 42.1 °F 48% 29.95 in 10.0 mi West 13.8 mph - 0.01 in   Overcast
5:53 PM 55.0 °F 45.0 °F 69% 30.02 in 10.0 mi NW 13.8 mph - N/A   Mostly Cloudy
6:53 PM 55.9 °F 41.0 °F 57% 29.99 in 10.0 mi WSW 11.5 mph - N/A   Overcast
7:53 PM 55.0 °F 42.1 °F 62% 29.97 in 10.0 mi West 13.8 mph - N/A   Overcast
8:53 PM 52.0 °F 42.1 °F 69% 29.97 in 10.0 mi SW 15.0 mph - N/A   Partly Cloudy
9:53 PM 51.1 °F 43.0 °F 74% 29.96 in 10.0 mi WSW 8.1 mph - N/A   Scattered Clouds
10:53 PM 52.0 °F 42.1 °F 69% 29.93 in 10.0 mi WSW 11.5 mph - N/A   Mostly Cloudy
11:53 PM 51.1 °F 42.1 °F 71% 29.99 in 10.0 mi WSW 10.4 mph - N/A   Clear